Flag for Canada Weather past 2 weeks in Pond Inlet, Nunavut Territory, Canada

Now
9 °F

Light snow. Partly sunny.


Feels Like: -11 °F
Forecast: 2 / 7 °F
Wind: 21 mph from West

Location: Pond Inlet

Current Time: Oct 23, 2014 at 11:47:24 AM

Latest Report: Oct 23, 2014 at 11:00 AM


Visibility: 15 mi

Pressure: 29.77 "Hg

Humidity: 72%

Dew point: 1 °F

Location of Pond InletLocation

Historic Weather in Pond Inlet — Graph

°F

Pond Inlet temperature yesterday

Maximum temperature yesterday: 19 °F (at 12:00 AM)
Minimum temperature yesterday: 3 °F (at 5:00 PM)
Average temperature yesterday: 9 °F

Past Weeks' High & Low Weather Summary

 TemperatureHumidityPressure
High43 °F (Oct 11, 2:00 PM)93% (Oct 8, 10:00 AM)30.40 "Hg (Oct 8, 10:00 AM)
Low3 °F (Oct 22, 5:00 PM)57% (Oct 11, 2:00 PM)29.54 "Hg (Oct 11, 10:00 AM)
Average22 °F80%29.91 "Hg
* Reported Oct 8 10:00 AM — Oct 23 10:00 AM, Pond Inlet, Weather by CustomWeather, © 2014

Note: Actual official high and low records may vary slightly from our data, if they occured in-between our weather recording intervals... More about our weather records

Advertising

Pond Inlet weather history for previous 24 hours

 ConditionsComfort  
Time TempWeatherWind HumidityBarometerVisibility
10:00 AM
Oct 23
9 °FMostly cloudy.23 mph72%29.75 "Hg9 mi
9:00 AM9 °FMostly cloudy.22 mph72%29.76 "Hg9 mi
8:04 AM7 °FMostly cloudy.23 mph72%29.76 "Hg9 mi
7:00 AM7 °FMostly cloudy.28 mph72%29.76 "Hg9 mi
6:00 AM5 °FOvercast.25 mph72%29.77 "Hg9 mi
5:00 AM5 °FMostly cloudy.23 mph72%29.77 "Hg9 mi
4:00 AM3 °FOvercast.24 mph72%29.77 "Hg9 mi
3:00 AM5 °FPartly cloudy.24 mph72%29.76 "Hg9 mi
2:00 AM3 °FClear.33 mph72%29.73 "Hg6 mi
1:00 AM3 °FClear.26 mph72%29.73 "Hg9 mi
12:00 AM3 °FClear.28 mph78%29.72 "Hg9 mi
11:00 PM
Oct 22
3 °FPassing clouds.24 mph78%29.72 "Hg9 mi
10:58 PM3 °FPassing clouds.24 mph78%29.73 "Hg9 mi
10:00 PM3 °FLight snow. Clear.29 mph78%29.72 "Hg5 mi
9:56 PM3 °FLight snow. Clear.30 mph72%29.71 "Hg5 mi
9:00 PM3 °FLight snow. Passing clouds.31 mph72%29.71 "Hg3 mi
8:55 PM3 °FLight snow. Partly cloudy.35 mph66%29.70 "Hg3 mi
8:00 PM3 °FClear.31 mph72%29.71 "Hg4 mi
7:00 PM3 °FPassing clouds.23 mph66%29.72 "Hg9 mi
6:00 PM3 °FOvercast.16 mph60%29.72 "Hg9 mi
5:00 PM3 °FPassing clouds.14 mph72%29.72 "Hg25 mi
4:00 PM5 °FPassing clouds.18 mph66%29.70 "Hg25 mi
3:00 PM7 °FPartly sunny.14 mph61%29.69 "Hg25 mi
2:00 PM7 °FPartly sunny.14 mph66%29.68 "Hg25 mi
1:00 PM9 °FPartly sunny.18 mph66%29.66 "Hg25 mi
12:00 PM9 °FPartly sunny.15 mph72%29.65 "Hg25 mi
11:00 AM9 °FOvercast.16 mph72%29.64 "Hg25 mi
Weather by CustomWeather, © 2014

See weather overviewHow to use our weather pages